This is the latest recevied weather packets stored in our database for station/object WX5RP. If no packets are shown the sender has not sent any weather packets the latest 10 day(s).
| Time | Temp. | Humidity | Pressure | Rain* | Wind** | Luminosity | Snow |
|---|---|---|---|---|---|---|---|
| 1788111616 | 15° C | 44% | 1021.4 hPa | 0 mm | - | 766 W/m² | - |
| 1788111016 | 13.89° C | 45% | 1021.1 hPa | 0 mm | - | 735 W/m² | - |
| 1788110416 | 13.33° C | 47% | 1021.5 hPa | 0 mm | - | 746 W/m² | - |
| 1788109816 | 12.78° C | 48% | 1021.1 hPa | 0 mm | - | 636 W/m² | - |
| 1788109216 | 12.22° C | 52% | 1021.1 hPa | 0 mm | - | 630 W/m² | - |
| 1788108616 | 11.67° C | 54% | 1021.4 hPa | 0 mm | - | 618 W/m² | - |
| 1788108016 | 10.56° C | 54% | 1021.4 hPa | 0 mm | - | 598 W/m² | - |
| 1788107416 | 10° C | 59% | 1021.4 hPa | 0 mm | - | 551 W/m² | - |
| 1788106815 | 9.44° C | 61% | 1021.9 hPa | 0 mm | - | 503 W/m² | - |
| 1788106216 | 8.89° C | 63% | 1021.2 hPa | 0 mm | - | 507 W/m² | - |
| 1788105615 | 8.33° C | 64% | 1021.2 hPa | 0 mm | - | 480 W/m² | - |
| 1788105016 | 7.22° C | 70% | 1021.6 hPa | 0 mm | - | 448 W/m² | - |
| 1788104416 | 6.67° C | 70% | 1021.6 hPa | 0 mm | - | 396 W/m² | - |
| 1788103816 | 6.11° C | 72% | 1021.6 hPa | 0 mm | - | 372 W/m² | - |
| 1788103215 | 4.44° C | 78% | 1021.9 hPa | 0 mm | - | 337 W/m² | - |
| 1788102615 | 3.33° C | 80% | 1021.5 hPa | 0 mm | - | 298 W/m² | - |
| 1788102015 | 2.22° C | 82% | 1021.5 hPa | 0 mm | - | 264 W/m² | - |
| 1788101415 | 1.11° C | 83% | 1021.5 hPa | 0 mm | - | 224 W/m² | - |
| 1788100815 | 0.56° C | 84% | 1021.9 hPa | 0 mm | - | 143 W/m² | - |
| 1788100217 | 0° C | 85% | 1021.9 hPa | 0 mm | - | 141 W/m² | - |
| 1788099617 | -0.56° C | 84% | 1021.9 hPa | 0 mm | - | 100 W/m² | - |
| 1788099017 | -1.11° C | 84% | 1021.2 hPa | 0 mm | - | 73 W/m² | - |
| 1788098417 | -1.11° C | 84% | 1021.5 hPa | 0 mm | - | 45 W/m² | - |
| 1788097817 | -1.67° C | 84% | 1021.4 hPa | 0 mm | - | 23 W/m² | - |
| 1788097215 | -1.11° C | 84% | 1021.9 hPa | 0 mm | - | 12 W/m² | - |
* Rain latest hour (hover to see other rain measurements)
** Current wind speed in m/s (hover to see current wind gust speed)